Location: Molveno
(46.1500°N, 10.9667°E)
Time: 17:04:48
(UTC+00:00)

SAR-Lupe-2 - Pass Details

Date: 05 July 2020
Orbit: 482 x 484 km, 98.1° (Epoch: 09 August)

Event Time Altitude Azimuth Distance (km) Brightness Sun altitude
Rises 20:04:57 0° 22° (NNE) 2,559 7.6 -8.1°
Reaches altitude 10° 20:07:11 10° 33° (NNE) 1,673 6.5 -8.4°
Maximum altitude 20:10:26 32° 98° (E) 853 4.4 -8.8°
Enters shadow 20:13:39 10° 163° (SSE) 1,650 5.7 -9.2°
